Stations météo

réclame
Mon MeteoGroup
Cozzo Spadaro, Italie (16480): Température de l'air & dewpoint: 17.05.2018 20:00:00 - 23.05.2018 20:00:00 (CEST)Cozzo Spadaro, Italie (16480): Vitesse du vent: 17.05.2018 20:00:00 - 23.05.2018 20:00:00 (CEST)Cozzo Spadaro, Italie (16480): Direction du vent: 17.05.2018 20:00:00 - 23.05.2018 20:00:00 (CEST)Cozzo Spadaro, Italie (16480): reduced air pressure: 17.05.2018 20:00:00 - 23.05.2018 20:00:00 (CEST)Cozzo Spadaro, Italie (16480): visibility: 17.05.2018 20:00:00 - 23.05.2018 20:00:00 (CEST)Cozzo Spadaro, Italie (16480): Ensoleillement: 17.05.2018 20:00:00 - 23.05.2018 20:00:00 (CEST)
Date & Time tt [°C] td [°C] ff [km/h] ff [knt] dd ppp [hPa] vv [km] sd [min]
23.05.2018 20:00:00 20,6 17,0 0 0 N 1014,0 20 18
23.05.2018 19:00:00 21,8 16,1 8 4 NW 1013,0 20 60
23.05.2018 18:00:00 21,6 16,1 16 9 WNW 1013,0 15 60
23.05.2018 17:00:00 22,0 16,3 18 10 WNW 1012,9 15 60
23.05.2018 16:00:00 22,2 16,5 24 13 W 1012,9 20 60
23.05.2018 15:00:00 22,6 15,9 26 14 W 1013,1 20 60
23.05.2018 14:00:00 22,6 15,9 24 13 W 1013,3 20 60
23.05.2018 13:00:00 22,4 15,7 24 13 W 1013,3 20 60
23.05.2018 12:00:00 22,4 15,7 22 12 W 1013,3 20 60
23.05.2018 11:00:00 21,8 16,5 16 9 W 1013,2 20 60
23.05.2018 10:00:00 21,2 16,0 11 6 W 1013,0 20 60
23.05.2018 09:00:00 20,6 16,0 9 5 W 1013,0 20 60
23.05.2018 08:00:00 19,4 15,1 4 2 WNW 1012,5 20 42
23.05.2018 07:00:00 - - - - - - - -
23.05.2018 06:00:00 - - - - - - - -
23.05.2018 05:00:00 - - - - - - - -
23.05.2018 04:00:00 - - - - - - - -
23.05.2018 03:00:00 - - - - - - - -
23.05.2018 02:00:00 - - - - - - - -
23.05.2018 01:00:00 - - - - - - - -
23.05.2018 00:00:00 - - - - - - - -
22.05.2018 23:00:00 - - - - - - - -
22.05.2018 22:00:00 - - - - - - - -
22.05.2018 21:00:00 - - - - - - - -
22.05.2018 20:00:00 20,2 17,6 22 12 ENE 1011,8 10 0
22.05.2018 19:00:00 20,4 17,6 16 9 NE 1011,9 10 0
22.05.2018 18:00:00 20,8 17,8 21 11 NE 1011,9 10 0
22.05.2018 17:00:00 21,4 18,2 18 10 NE 1011,9 10 0
22.05.2018 16:00:00 21,6 18,2 18 10 ENE 1012,0 10 0
22.05.2018 15:00:00 21,8 18,2 21 11 ENE 1012,3 10 6
22.05.2018 14:00:00 21,8 17,8 18 10 ENE 1012,4 10 18
22.05.2018 13:00:00 21,4 17,6 18 10 ENE 1012,5 10 30
22.05.2018 12:00:00 21,2 17,2 22 12 ENE 1012,4 10 6
22.05.2018 11:00:00 22,0 18,4 21 11 ENE 1012,1 10 12
22.05.2018 10:00:00 20,0 17,0 18 10 ENE 1012,2 12 60
22.05.2018 09:00:00 19,0 16,4 21 11 ENE 1012,0 12 60
22.05.2018 08:00:00 18,6 16,0 18 10 ENE 1011,8 12 36
22.05.2018 07:00:00 - - - - - - - -
22.05.2018 06:00:00 - - - - - - - -
22.05.2018 05:00:00 - - - - - - - -
22.05.2018 04:00:00 - - - - - - - -
22.05.2018 03:00:00 - - - - - - - -
22.05.2018 02:00:00 - - - - - - - -
22.05.2018 01:00:00 - - - - - - - -
22.05.2018 00:00:00 - - - - - - - -
21.05.2018 23:00:00 - - - - - - - -
21.05.2018 22:00:00 - - - - - - - -
21.05.2018 21:00:00 - - - - - - - -
21.05.2018 20:00:00 20,6 18,2 13 7 ENE 1010,1 16 0
21.05.2018 19:00:00 21,4 18,6 15 8 ENE 1010,0 16 60
21.05.2018 18:00:00 22,0 18,8 15 8 ENE 1010,0 18 60
21.05.2018 17:00:00 22,4 19,0 15 8 E 1010,4 20 60
21.05.2018 16:00:00 23,6 19,7 15 8 ENE 1011,0 20 60
21.05.2018 15:00:00 22,6 18,6 15 8 ENE 1011,1 20 60
21.05.2018 14:00:00 22,8 18,6 15 8 ENE 1011,3 25 60
21.05.2018 13:00:00 22,8 18,5 15 8 ENE 1011,9 25 60
21.05.2018 12:00:00 23,2 18,7 15 8 NE 1012,0 25 60
21.05.2018 11:00:00 21,8 17,8 11 6 NE 1011,1 20 60
21.05.2018 10:00:00 20,6 16,6 15 8 ENE 1010,8 25 60
21.05.2018 09:00:00 20,0 16,0 21 11 ENE 1010,7 25 60
21.05.2018 08:00:00 19,4 15,3 21 11 NE 1009,9 25 0
21.05.2018 07:00:00 - - - - - - - -
21.05.2018 06:00:00 - - - - - - - -
21.05.2018 05:00:00 - - - - - - - -
21.05.2018 04:00:00 - - - - - - - -
21.05.2018 03:00:00 - - - - - - - -
21.05.2018 02:00:00 - - - - - - - -
21.05.2018 01:00:00 - - - - - - - -
21.05.2018 00:00:00 - - - - - - - -
20.05.2018 23:00:00 - - - - - - - -
20.05.2018 22:00:00 - - - - - - - -
20.05.2018 21:00:00 - - - - - - - -
20.05.2018 20:00:00 19,4 15,1 15 8 NE 1009,7 12 0
20.05.2018 19:00:00 19,8 15,7 13 7 NE 1009,4 12 60
20.05.2018 18:00:00 20,0 15,7 15 8 ENE 1009,1 12 60
20.05.2018 17:00:00 19,6 15,2 28 15 ENE 1008,7 10 42
20.05.2018 16:00:00 19,4 14,9 31 17 ENE 1008,6 10 0
20.05.2018 15:00:00 19,0 14,9 31 17 NNE 1008,3 10 0
20.05.2018 14:00:00 18,8 14,7 34 18 NNE 1009,0 10 0
20.05.2018 13:00:00 18,8 14,7 31 17 NE 1009,8 10 0
20.05.2018 12:00:00 19,0 15,1 24 13 ENE 1010,6 7 0
20.05.2018 11:00:00 20,8 16,2 31 17 NE 1010,1 15 54
20.05.2018 10:00:00 20,8 16,0 29 16 NE 1009,9 25 54
20.05.2018 09:00:00 20,2 15,2 28 15 NE 1010,0 25 60
20.05.2018 08:00:00 19,4 14,9 26 14 NE 1010,0 25 24
20.05.2018 07:00:00 - - - - - - - -
20.05.2018 06:00:00 - - - - - - - -
20.05.2018 05:00:00 - - - - - - - -
20.05.2018 04:00:00 - - - - - - - -
20.05.2018 03:00:00 - - - - - - - -
20.05.2018 02:00:00 - - - - - - - -
20.05.2018 01:00:00 - - - - - - - -
20.05.2018 00:00:00 - - - - - - - -
19.05.2018 23:00:00 - - - - - - - -
19.05.2018 22:00:00 - - - - - - - -
19.05.2018 21:00:00 - - - - - - - -
19.05.2018 20:00:00 19,4 15,5 18 10 ENE 1011,0 15 0
19.05.2018 19:00:00 20,0 16,2 18 10 ENE 1011,0 20 42
19.05.2018 18:00:00 21,0 16,4 18 10 ENE 1011,0 20 60
19.05.2018 17:00:00 21,4 16,1 24 13 ENE 1011,1 20 60
19.05.2018 16:00:00 21,6 16,4 22 12 ENE 1011,1 20 60
19.05.2018 15:00:00 21,6 17,0 18 10 E 1012,0 20 60
19.05.2018 14:00:00 21,8 17,0 21 11 E 1012,1 20 54
19.05.2018 13:00:00 21,6 16,8 18 10 ENE 1012,4 15 54
19.05.2018 12:00:00 21,0 16,4 18 10 E 1012,3 15 -
19.05.2018 11:00:00 20,0 15,7 24 13 NE 1011,4 10 36
19.05.2018 10:00:00 19,8 15,2 22 12 ENE 1010,4 18 0
19.05.2018 09:00:00 18,6 14,1 9 5 E 1011,9 15 0
19.05.2018 08:00:00 18,4 14,1 11 6 NNE 1012,0 15 0
19.05.2018 07:00:00 - - - - - - - -
19.05.2018 06:00:00 - - - - - - - -
19.05.2018 05:00:00 - - - - - - - -
19.05.2018 04:00:00 - - - - - - - -
19.05.2018 03:00:00 - - - - - - - -
19.05.2018 02:00:00 - - - - - - - -
19.05.2018 01:00:00 - - - - - - - -
19.05.2018 00:00:00 - - - - - - - -
18.05.2018 23:00:00 - - - - - - - -
18.05.2018 22:00:00 - - - - - - - -
18.05.2018 21:00:00 - - - - - - - -
18.05.2018 20:00:00 19,4 15,7 21 11 NE 1010,1 20 0
18.05.2018 19:00:00 20,2 16,2 21 11 ENE 1010,0 20 0
18.05.2018 18:00:00 21,0 16,4 24 13 NE 1010,0 20 60
18.05.2018 17:00:00 21,0 16,2 26 14 ENE 1010,0 20 60
18.05.2018 16:00:00 21,0 15,3 29 16 NE 1010,0 20 60
18.05.2018 15:00:00 21,0 16,4 31 17 ENE 1010,1 20 60
18.05.2018 14:00:00 21,2 15,7 29 16 NE 1010,1 20 60
18.05.2018 13:00:00 21,0 15,8 29 16 ENE 1010,0 20 60
18.05.2018 12:00:00 21,0 16,6 31 17 NE 1009,8 10 60
18.05.2018 11:00:00 20,6 16,4 31 17 ENE 1009,8 10 60
18.05.2018 10:00:00 20,0 15,7 29 16 NE 1009,7 10 48
18.05.2018 09:00:00 19,6 15,2 28 15 NE 1010,0 10 0
18.05.2018 08:00:00 19,0 14,9 26 14 ENE 1010,3 10 0
18.05.2018 07:00:00 - - - - - - - -
18.05.2018 06:00:00 - - - - - - - -
18.05.2018 05:00:00 - - - - - - - -
18.05.2018 04:00:00 - - - - - - - -
18.05.2018 03:00:00 - - - - - - - -
18.05.2018 02:00:00 - - - - - - - -
18.05.2018 01:00:00 - - - - - - - -
18.05.2018 00:00:00 - - - - - - - -
17.05.2018 23:00:00 - - - - - - - -
17.05.2018 22:00:00 - - - - - - - -
17.05.2018 21:00:00 - - - - - - - -
17.05.2018 20:00:00 19,4 15,5 22 12 NE 1012,0 20 0

tt = Température de l'air
td = dewpoint
ff = Vitesse du vent
dd = Direction du vent
ppp = reduced air pressure
vv = visibility
sd = Ensoleillement

stations d'obs. à proximité